Flag for Austria Weather past 2 weeks in Bad Radkersburg, Styria, Austria

Now
83 °F

Scattered clouds.


Feels Like: 84 °F
Forecast: 63 / 85 °F
Wind: 3 mph from Southeast

Location: Murska Sobota

Current Time: Jul 3, 2015 at 3:17:03 PM

Latest Report: Jul 3, 2015 at 2:00 PM


Visibility: 13 mi

Pressure: 30.28 "Hg

Humidity: 46%

Dew point: 60 °F

Location of Bad RadkersburgLocation

Historic Weather in Bad Radkersburg — Graph

°F

Bad Radkersburg temperature yesterday

Maximum temperature yesterday: 87 °F (at 3:00 PM)
Minimum temperature yesterday: 62 °F (at 3:00 AM)
Average temperature yesterday: 75 °F

Past Weeks' High & Low Weather Summary

 TemperatureHumidityPressure
High87 °F (Jul 2, 3:00 PM)99% (Jun 21, 4:00 AM)30.30 "Hg (Jun 21, 4:00 AM)
Low47 °F (Jun 21, 3:00 AM)39% (Jun 18, 3:00 PM)29.78 "Hg (Jun 23, 5:00 AM)
Average65 °F74%30.08 "Hg
* Reported Jun 18 2:00 PM — Jul 3 2:00 PM, Bad Radkersburg, Weather by CustomWeather, © 2015

Note: Actual official high and low records may vary slightly from our data, if they occured in-between our weather recording intervals... More about our weather records

Advertising

Bad Radkersburg weather history for previous 24 hours

 ConditionsComfort  
Time TempWeatherWind HumidityBarometerVisibility
2:00 PM
Fri, Jul 3
83 °FScattered clouds.3 mph46%30.28 "Hg12 mi
1:00 PM83 °FWarm.3 mph47%30.29 "HgN/A
12:00 PM82 °FWarm.5 mph50%30.29 "HgN/A
11:00 AM80 °FWarm.5 mph49%30.29 "HgN/A
10:00 AM78 °FWarm.5 mph52%30.29 "HgN/A
9:00 AM75 °FMild.3 mph61%30.30 "HgN/A
8:00 AM70 °FPassing clouds.1 mph75%30.29 "Hg12 mi
7:00 AM65 °FPassing clouds.No wind93%30.29 "Hg12 mi
6:00 AM63 °FMild.1 mph96%30.28 "HgN/A
5:00 AM61 °FCool.1 mph96%30.25 "HgN/A
4:00 AM62 °FCool.No wind95%30.25 "HgN/A
3:00 AM62 °FCool.1 mph95%30.25 "HgN/A
2:00 AM64 °FMild.1 mph93%30.24 "HgN/A
1:00 AM64 °FMild.1 mph93%30.24 "HgN/A
12:00 AM65 °FMild.1 mph91%30.24 "HgN/A
11:00 PM
Thu, Jul 2
67 °FMild.1 mph86%30.24 "HgN/A
10:00 PM70 °FMild.No wind81%30.22 "HgN/A
9:00 PM75 °FMild.No wind72%30.20 "HgN/A
8:00 PM82 °FPassing clouds.1 mph50%30.17 "Hg12 mi
7:00 PM85 °FWarm.1 mph44%30.16 "HgN/A
6:00 PM86 °FWarm.1 mph41%30.16 "HgN/A
5:00 PM87 °FWarm.2 mph42%30.15 "HgN/A
4:00 PM86 °FWarm.2 mph42%30.15 "HgN/A
3:00 PM87 °FPassing clouds.2 mph41%30.15 "Hg12 mi
Weather by CustomWeather, © 2015

See weather overviewHow to use our weather pages